When you browse on this site, cookies collect data to enhance your experience and personalize the content and advertising you see.
Visit our Privacy Policy to learn more. By continuing to use the site, you agree to this use of cookies and data.
  • In Czech Republic
  • List of Countries
  • For 7 days
  • Water Temperature
  • Satellite Maps
  • Weather Map
  • Weather Widgets
  • user-avatar
    Login

    Hourly Weather Alcoi

    Today, 12 December, Wednesday

    Time Temperature Precipitation Wind Pressure Humidity
    00:00 +10°C° 0 mm 5 mps 717 mmHg 58%
    01:00 +9°C° 0 mm 5 mps 717 mmHg 60%
    02:00 +10°C° 0 mm 4 mps 717 mmHg 62%
    03:00 +8°C° 0 mm 4 mps 717 mmHg 63%
    04:00 +8°C° 0 mm 4 mps 717 mmHg 67%
    05:00 +8°C° 0 mm 4 mps 717 mmHg 70%
    06:00 +7°C° 0 mm 4 mps 717 mmHg 74%
    07:00 +8°C° 0 mm 4 mps 717 mmHg 71%
    08:00 +10°C° 0 mm 4 mps 717 mmHg 69%
    09:00 +10°C° 0 mm 3 mps 717 mmHg 67%
    10:00 +12°C° 0 mm 3 mps 717 mmHg 60%
    11:00 +14°C° 0 mm 3 mps 717 mmHg 54%
    12:00 +16°C° 0 mm 3 mps 717 mmHg 47%
    13:00 +17°C° 0 mm 3 mps 717 mmHg 47%
    14:00 +17°C° 0 mm 3 mps 716 mmHg 46%
    15:00 +17°C° 0 mm 3 mps 716 mmHg 46%
    16:00 +14°C° 0 mm 3 mps 715 mmHg 54%
    17:00 +13°C° 0 mm 4 mps 715 mmHg 61%
    18:00 +11°C° 0 mm 4 mps 715 mmHg 69%
    19:00 +11°C° 0 mm 4 mps 715 mmHg 71%
    20:00 +11°C° 0 mm 4 mps 715 mmHg 74%
    21:00 +10°C° 0 mm 5 mps 715 mmHg 76%
    22:00 +10°C° 0 mm 5 mps 715 mmHg 76%
    23:00 +10°C° 0 mm 5 mps 715 mmHg 76%

    Tomorrow, 13 December, Thursday

    Time Temperature Precipitation Wind Pressure Humidity
    00:00 +11°C° 0 mm 4 mps 714 mmHg 77%
    01:00 +10°C° 0 mm 5 mps 714 mmHg 77%
    02:00 +9°C° 0 mm 5 mps 713 mmHg 77%
    03:00 +9°C° 0 mm 5 mps 713 mmHg 76%
    04:00 +9°C° 0 mm 5 mps 713 mmHg 76%
    05:00 +9°C° 0 mm 5 mps 712 mmHg 76%
    06:00 +9°C° 0 mm 5 mps 712 mmHg 76%
    07:00 +9°C° 0.2 mm 5 mps 711 mmHg 77%
    08:00 +9°C° 0.2 mm 5 mps 711 mmHg 77%
    09:00 +9°C° 0.2 mm 5 mps 711 mmHg 78%
    10:00 +9°C° 0.8 mm 5 mps 710 mmHg 77%
    11:00 +10°C° 0.8 mm 6 mps 709 mmHg 76%
    12:00 +11°C° 0.8 mm 6 mps 708 mmHg 76%
    13:00 +10°C° 0.6 mm 7 mps 708 mmHg 70%
    14:00 +9°C° 0.6 mm 8 mps 707 mmHg 65%
    15:00 +7°C° 0.6 mm 10 mps 707 mmHg 60%
    16:00 +7°C° 0.1 mm 11 mps 707 mmHg 61%
    17:00 +5°C° 0.1 mm 13 mps 707 mmHg 63%
    18:00 +4°C° 0.1 mm 15 mps 707 mmHg 64%
    19:00 +5°C° 0.9 mm 15 mps 707 mmHg 63%
    20:00 +5°C° 0.9 mm 15 mps 707 mmHg 61%
    21:00 +5°C° 0.9 mm 15 mps 708 mmHg 60%
    22:00 +5°C° 0.5 mm 15 mps 708 mmHg 59%
    23:00 +5°C° 0.5 mm 15 mps 709 mmHg 58%

    Day after tomorrow, 14 December, Friday

    Time Temperature Precipitation Wind Pressure Humidity
    00:00 +4°C° 0.5 mm 15 mps 709 mmHg 58%
    01:00 +4°C° 0.2 mm 14 mps 710 mmHg 59%
    02:00 +4°C° 0.2 mm 13 mps 710 mmHg 59%
    03:00 +4°C° 0.2 mm 12 mps 711 mmHg 60%
    04:00 +3°C° 0 mm 12 mps 712 mmHg 62%
    05:00 +3°C° 0 mm 12 mps 712 mmHg 64%
    06:00 +2°C° 0 mm 12 mps 713 mmHg 66%
    07:00 +3°C° 0 mm 12 mps 714 mmHg 65%
    08:00 +3°C° 0 mm 11 mps 714 mmHg 63%
    09:00 +4°C° 0 mm 11 mps 715 mmHg 62%
    10:00 +6°C° 0 mm 10 mps 715 mmHg 57%
    11:00 +8°C° 0 mm 9 mps 716 mmHg 53%
    12:00 +10°C° 0 mm 8 mps 716 mmHg 48%
    13:00 +10°C° 0 mm 7 mps 716 mmHg 47%
    14:00 +10°C° 0 mm 7 mps 717 mmHg 47%
    15:00 +10°C° 0 mm 7 mps 717 mmHg 46%
    16:00 +9°C° 0 mm 7 mps 717 mmHg 51%
    17:00 +8°C° 0 mm 7 mps 717 mmHg 55%
    18:00 +6°C° 0 mm 8 mps 718 mmHg 60%
    19:00 +6°C° 0 mm 8 mps 718 mmHg 60%
    20:00 +5°C° 0 mm 8 mps 718 mmHg 60%
    21:00 +5°C° 0 mm 8 mps 719 mmHg 60%
    22:00 +5°C° 0 mm 8 mps 719 mmHg 61%
    23:00 +4°C° 0 mm 7 mps 719 mmHg 63%

    15 December, Saturday

    Time Temperature Precipitation Wind Pressure Humidity
    00:00 +4°C° 0 mm 6 mps 719 mmHg 64%
    01:00 +4°C° 0 mm 6 mps 719 mmHg 66%
    02:00 +4°C° 0 mm 6 mps 719 mmHg 68%
    03:00 +3°C° 0 mm 6 mps 719 mmHg 70%
    04:00 +3°C° 0 mm 6 mps 719 mmHg 70%
    05:00 +3°C° 0 mm 6 mps 719 mmHg 71%
    06:00 +4°C° 0 mm 6 mps 719 mmHg 71%
    07:00 +4°C° 0 mm 6 mps 720 mmHg 68%
    08:00 +5°C° 0 mm 6 mps 720 mmHg 65%
    09:00 +7°C° 0 mm 5 mps 720 mmHg 62%
    10:00 +9°C° 0 mm 5 mps 720 mmHg 58%
    11:00 +12°C° 0 mm 5 mps 720 mmHg 55%
    12:00 +14°C° 0 mm 5 mps 720 mmHg 51%
    13:00 +14°C° 0 mm 5 mps 719 mmHg 52%
    14:00 +15°C° 0 mm 6 mps 719 mmHg 53%
    15:00 +15°C° 0 mm 6 mps 719 mmHg 54%
    16:00 +14°C° 0 mm 6 mps 719 mmHg 59%
    17:00 +13°C° 0 mm 5 mps 719 mmHg 64%
    18:00 +10°C° 0 mm 5 mps 719 mmHg 69%
    19:00 +10°C° 0 mm 5 mps 719 mmHg 70%
    20:00 +11°C° 0 mm 4 mps 720 mmHg 71%
    21:00 +11°C° 0 mm 4 mps 720 mmHg 73%
    22:00 +10°C° 0 mm 4 mps 720 mmHg 74%
    23:00 +10°C° 0 mm 3 mps 719 mmHg 76%

    16 December, Sunday

    Time Temperature Precipitation Wind Pressure Humidity
    00:00 +10°C° 0 mm 3 mps 719 mmHg 77%
    01:00 +10°C° 0 mm 3 mps 719 mmHg 78%
    02:00 +10°C° 0 mm 3 mps 719 mmHg 80%
    03:00 +10°C° 0 mm 3 mps 719 mmHg 81%
    04:00 +9°C° 0 mm 3 mps 719 mmHg 82%
    05:00 +9°C° 0 mm 3 mps 719 mmHg 83%
    06:00 +9°C° 0 mm 3 mps 719 mmHg 84%
    07:00 +10°C° 0 mm 3 mps 719 mmHg 79%
    08:00 +11°C° 0 mm 3 mps 719 mmHg 75%
    09:00 +12°C° 0 mm 3 mps 719 mmHg 71%
    10:00 +14°C° 0 mm 3 mps 719 mmHg 64%
    11:00 +17°C° 0 mm 3 mps 719 mmHg 57%
    12:00 +18°C° 0 mm 3 mps 719 mmHg 51%
    13:00 +19°C° 0 mm 3 mps 718 mmHg 49%
    14:00 +19°C° 0 mm 4 mps 718 mmHg 47%
    15:00 +19°C° 0 mm 4 mps 718 mmHg 46%
    16:00 +18°C° 0 mm 4 mps 718 mmHg 52%
    17:00 +15°C° 0 mm 4 mps 718 mmHg 59%
    18:00 +13°C° 0 mm 4 mps 719 mmHg 65%
    19:00 +13°C° 0 mm 4 mps 719 mmHg 68%
    20:00 +12°C° 0 mm 4 mps 719 mmHg 71%
    21:00 +11°C° 0 mm 4 mps 719 mmHg 75%
    22:00 +11°C° 0 mm 4 mps 719 mmHg 76%
    23:00 +11°C° 0 mm 4 mps 719 mmHg 77%

    17 December, Monday

    Time Temperature Precipitation Wind Pressure Humidity
    00:00 +11°C° 0 mm 4 mps 719 mmHg 78%
    01:00 +10°C° 0 mm 4 mps 719 mmHg 78%
    02:00 +10°C° 0 mm 4 mps 719 mmHg 79%
    03:00 +10°C° 0 mm 4 mps 719 mmHg 79%
    04:00 +10°C° 0 mm 4 mps 719 mmHg 78%
    05:00 +10°C° 0 mm 3 mps 719 mmHg 77%
    06:00 +10°C° 0 mm 3 mps 719 mmHg 76%
    07:00 +11°C° 0 mm 3 mps 719 mmHg 75%
    08:00 +11°C° 0 mm 3 mps 720 mmHg 73%
    09:00 +12°C° 0 mm 3 mps 721 mmHg 72%
    10:00 +12°C° 0.2 mm 4 mps 720 mmHg 69%
    11:00 +13°C° 0.2 mm 4 mps 720 mmHg 65%
    12:00 +13°C° 0.2 mm 5 mps 720 mmHg 62%
    13:00 +14°C° 0 mm 5 mps 720 mmHg 57%
    14:00 +14°C° 0 mm 4 mps 720 mmHg 52%
    15:00 +15°C° 0 mm 4 mps 720 mmHg 47%
    16:00 +13°C° 0 mm 4 mps 720 mmHg 52%
    17:00 +12°C° 0 mm 3 mps 720 mmHg 57%
    18:00 +10°C° 0 mm 3 mps 721 mmHg 63%
    19:00 +10°C° 0 mm 3 mps 721 mmHg 65%
    20:00 +9°C° 0 mm 3 mps 721 mmHg 68%
    21:00 +8°C° 0 mm 2 mps 722 mmHg 71%
    22:00 +8°C° 0 mm 2 mps 722 mmHg 71%
    23:00 +8°C° 0 mm 1 mps 721 mmHg 72%
    Show more